Flag for Jordan Weather past 2 weeks in Amman, Jordan

Now
55 °F

Clear.


Feels Like: 55 °F
Forecast: 61 / 82 °F
Wind: No wind

Location: Amman Airport

Current Time: Apr 26, 2015 at 5:01:22 AM

Latest Report: Apr 26, 2015 at 4:00 AM


Visibility: 4 mi

Pressure: 30.09 "Hg

Humidity: 24%

Dew point: 19 °F

Location of AmmanLocation

Historic Weather in Amman — Graph

°F

Amman temperature yesterday

Maximum temperature yesterday: 73 °F (at 5:00 PM)
Minimum temperature yesterday: 41 °F (at 5:00 AM)
Average temperature yesterday: 58 °F

Past Weeks' High & Low Weather Summary

 TemperatureHumidityPressure
High81 °F (Apr 20, 1:00 PM)93% (Apr 12, 4:00 AM)30.30 "Hg (Apr 12, 4:00 AM)
Low41 °F (Apr 12, 12:00 PM)11% (Apr 25, 4:00 PM)29.83 "Hg (Apr 15, 4:00 PM)
Average57 °F53%30.06 "Hg
* Reported Apr 11 4:00 AM — Apr 26 4:00 AM, Amman, Weather by CustomWeather, © 2015

Note: Actual official high and low records may vary slightly from our data, if they occured in-between our weather recording intervals... More about our weather records

Advertising

Amman weather history for previous 24 hours

 ConditionsComfort  
Time TempWeatherWind HumidityBarometerVisibility
4:00 AM
Sun, Apr 26
55 °FClear.No wind24%30.09 "Hg4 mi
3:00 AM55 °FClear.No wind24%30.09 "Hg4 mi
2:00 AM59 °FClear.3 mph20%30.09 "Hg4 mi
1:00 AM59 °FClear.No wind18%30.12 "Hg4 mi
12:00 AM59 °FClear.5 mph18%30.15 "Hg4 mi
11:00 PM
Sat, Apr 25
59 °FClear.5 mph18%30.15 "Hg4 mi
10:00 PM61 °FClear.6 mph22%30.12 "Hg4 mi
9:00 PM63 °FClear.7 mph19%30.12 "Hg4 mi
8:00 PM64 °FClear.7 mph18%30.12 "Hg4 mi
7:00 PM68 °FClear.7 mph17%30.12 "Hg4 mi
6:00 PM72 °FClear.7 mph13%30.12 "Hg4 mi
5:00 PM73 °FClear.7 mph12%30.12 "Hg4 mi
4:00 PM72 °FClear.6 mph11%30.12 "Hg4 mi
3:00 PM70 °FClear.7 mph16%30.15 "Hg4 mi
2:00 PM70 °FClear.6 mph17%30.18 "Hg5 mi
1:00 PM66 °FClear.9 mph21%30.21 "Hg4 mi
12:00 PM64 °FClear.8 mph24%30.24 "Hg4 mi
11:00 AM61 °FClear.5 mph25%30.24 "Hg4 mi
10:00 AM55 °FHaze.5 mph41%30.24 "Hg3 mi
9:00 AM52 °FHaze.5 mph54%30.24 "Hg3 mi
8:00 AM48 °FHaze.6 mph66%30.21 "Hg3 mi
7:00 AM43 °FHaze.No wind81%30.21 "Hg2 mi
6:00 AM41 °FFog.No wind87%30.18 "Hg2 mi
5:00 AM41 °FHaze.3 mph81%30.18 "Hg3 mi
Weather by CustomWeather, © 2015

See weather overviewHow to use our weather pages